STARLINK-11738, 64375

Orbit data source: Space-Track

STARLINK-11738, 64375 is a payload satellite owned by SpaceX/Seattle (US) in LEO that was launched on Fri, 13 Jun 2025 UTC via an FALCON 9 launch vehicle from the Air Force Eastern Test Range (AFETR). Payload-class satellites include a variety of spacecraft equipped with specific instruments for various scientific and technological missions. These include communications satellites like Starlink; space stations such as the ISS; scientific satellites like the Hubble; Earth observation satellites from companies like Planet Labs, Umbra, and HawkEye 360; GPS; miniature CubeSats for education and research; and military/defense satellites.

Loading next visibility...
Identifier
64375, 2025-127F
Orbit
LEO
Country
Flag of USUS
Related business
Manufacturer
SpaceX/Seattle
Mission
Operational Commercial Communications
Bus & Motor
STARLINK V2MD, Unknown motor
Mass
960 kg wet, ~910 kg dry
Launch date (UTC)
2025-06-13 (1 year ago)
Launch vehicle
FALCON 9
Launch site
Air Force Eastern Test Range (AFETR)
Object type
Payload
Rocket body
Debris
Shape & HBR
Box + 2 Pan, 18.1 m
Radar Cross Section
36.964 m², Large (>1 m²)

Expand to show TLE details & history
Last TLE update: 18 hours ago

TLE from 18 hours ago
0 STARLINK-11738
1 64375U 25127F   26171.09760609  .00126195  00000-0  96783-3 0  9996
2 64375  43.0008 187.6881 0003565 279.8312  80.2153 15.70939925 59601
Epoch: 2026-06-20T02:20Z
TLE epoch observation values (Epoch: 2026-06-20T02:20:33.166Z)
Latitude
-0.00001°
Longitude
-115.76722°
Altitude
355.574 km
Speed
7.698 km/s
True Right ascension
12h 30m 45s
True Declination
0° 00' 00"
Sunlit
Object was in daylight at epoch
Visualization orbit readout
Latitude
Unknown
Longitude
Unknown
Altitude
Unknown
Speed
Unknown
Apparent Right ascension
Unknown
Apparent Declination
Unknown
Sunlit
N/A
Visualization observer readout
Local Sidereal Time
07:18:48
Azimuth
Unknown
Elevation
Unknown
Doppler factor
Unknown
Orbital elements
Apogee altitude
360.593 km
Perigee altitude
355.79 km
Semi-major axis
6,736.328 km
Eccentricity
0.00036
Inclination
43.0008°
RAAN
187.6881°
Arg. of periapsis
279.8312°
True anomaly
80.25556°
Mean anomaly
80.2153°
Eccentric anomaly
80.23543°
Mean motion
3.92562 °/min
Orbital period
91.71 mins
BSTAR
0.00096783
Loading maneuver chart data...
Computing Atmospheric mass density...
Loading historical data...
Loading historical data...
Loading historical data...
Loading historical data...
Loading historical data...
Loading historical data...
Loading historical data...

Documentation

Showing up to 5 results
|